EHI
3 3 3 2 1 1 1 1 1 1 1 2 3 3 3 3 2 1 0 0 0 0 0 0 0 0 1 1 1 0 0 0 0 0 0 0 0 0
3 3 3 3 2 2 2 1 0 0 0 1 2 3 4 3 2 0 0 0 0 0 0 0 0 0 0 0 0 0 0 0 0 0 0 0 0 0
3 3 3 3 3 3 3 1 1 1 0 0 1 3 4 4 2 1 0 0 0 0 0 0 0 0 0 0 0 0 0 0 0 0 0 0 0 0
2 2 3 3 3 3 3 3 2 2 1 0 0 2 3 4 3 2 0 0 0 0 0 0 0 0 0 0 0 0 0 0 0 0 0 0 0 0
1 1 1 2 3 3 3 3 3 3 2 1 0 1 1 2 2 1 0 0 0 0 0 0 0 0 0 0 0 0 0 0 0 0 0 0 0 0
0 0 0 1 1 2 2 3 3 3 2 1 0 1 1 2 2 1 0 0 0 0 0 0 0 0 0 0 0 0 0 0 0 0 0 0 0 0
0 0 0 0 0 0 1 2 2 2 2 1 1 1 2 2 1 0 0 0 0 0 0 0 0 0 0 0 0 0 0 0 0 0 0 0 0 0
0 0 0 0 0 0 0 1 1 1 1 1 1 2 2 2 2 1 0 0 0 0 0 0 0 0 0 0 0 0 0 0 0 0 0 0 0 0
0 0 0 0 0 0 0 0 0 0 0 0 0 1 2 3 2 2 2 1 1 0 0 0 0 0 0 0 0 0 0 0 0 0 0 0 0 0
0 0 0 0 0 0 0 0 0 0 0 0 0 0 1 2 2 2 2 2 1 0 0 0 0 0 0 0 0 0 0 0 0 0 0 0 0 0
0 0 0 0 0 0 0 0 0 0 0 0 0 0 0 1 1 1 1 1 1 0 0 0 0 0 0 0 0 0 0 0 0 0 0 0 0 0
0 0 0 0 0 0 0 0 0 0 0 0 0 0 0 0 0 0 0 0 0 0 0 0 0 0 0 0 0 0 0 0 0 0 0 0 0 0
0 0 0 0 0 0 0 0 0 0 0 0 0 0 0 0 0 0 0 0 0 0 0 0 0 0 0 0 0 0 0 0 0 0 0 0 0 0
0 0 0 0 0 0 0 0 0 0 0 0 0 0 0 0 0 0 0 0 0 0 0 0 0 0 0 0 0 0 0 0 0 0 0 0 0 0
0 0 0 0 0 0 0 0 0 0 0 0 0 0 0 0 0 0 0 0 0 0 0 0 0 0 0 0 0 0 0 0 0 0 0 0 0 0
0 0 0 0 0 0 0 0 0 0 0 0 0 0 0 0 0 0 0 0 0 0 0 0 0 0 0 0 0 0 0 0 0 0 0 0 0 0
0 0 0 0 0 0 0 0 0 0 0 0 0 0 0 0 0 0 0 0 0 0 0 0 0 0 1 0 0 0 0 0 0 0 1 0 0 0
0 0 0 0 0 0 0 0 0 0 0 0 0 0 0 0 0 0 0 0 0 0 0 0 0 0 0 0 0 0 0 0 0 0 0 0 0 0
0 0 0 0 0 0 0 0 0 0 0 0 0 0 0 0 0 0 0 0 0 0 0 0 0 0 0 0 0 0 0 0 0 0 0 0 0 0
0 0 0 0 0 0 0 0 0 0 0 0 0 0 0 0 0 0 0 0 0 0 0 0 0 0 0 0 0 0 0 0 0 0 0 0 0 0
0 0 0 0 0 0 0 0 0 0 0 0 0 0 0 0 0 0 0 0 0 0 0 0 0 0 0 0 0 0 0 0 0 0 0 0 0 0
0 0 0 0 0 0 0 0 0 0 0 0 0 0 0 0 0 0 0 0 0 0 0 0 0 0 0 0 0 0 0 0 0 0 0 0 0 0
0 0 0 0 0 0 0 0 0 0 0 0 0 0 0 0 0 0 0 0 0 0 0 0 0 0 0 0 0 0 0 0 0 0 0 0 0 0
Wind_Speed
5 5 5 4 5 5 5 6 6 7 5 4 4 4 4 3 2 4 5 6 7 7 7 6 6 7 7 7 8 8 8 9 9 10 10 11 12 13
3 4 5 5 4 4 5 5 5 6 6 4 4 4 4 4 4 5 6 7 9 8 7 6 6 6 6 7 7 8 8 8 8 9 9 10 11 12
4 4 5 5 4 4 4 4 5 5 6 5 4 3 4 5 4 4 5 5 5 9 8 6 6 6 6 6 6 6 7 7 7 8 8 9 9 10
4 4 5 4 4 4 4 4 4 4 6 6 5 4 4 4 4 5 5 4 4 7 9 8 7 6 6 6 6 7 7 7 7 8 8 9 9 10
5 5 5 5 5 4 4 4 4 4 4 5 5 3 3 3 4 4 4 3 4 5 8 10 9 8 8 7 7 7 8 8 8 8 9 9 9 10
5 5 5 6 5 5 4 5 4 5 4 4 4 4 3 3 3 3 3 3 4 4 4 5 7 9 9 9 8 8 7 7 8 8 9 9 9 9
5 5 5 5 5 5 5 5 5 5 4 4 4 4 3 2 3 3 4 4 3 3 4 4 4 5 6 9 10 9 8 8 7 7 7 8 8 8
5 5 4 3 3 4 4 5 6 6 6 5 4 4 4 4 3 4 4 4 4 3 4 4 4 5 5 5 6 9 9 9 9 8 8 8 8 8
5 5 5 4 4 5 3 4 5 6 7 7 6 6 5 4 4 5 5 5 5 3 4 5 4 5 5 4 7 9 9 9 9 9 9 9 8 8
5 5 5 4 5 6 6 5 5 4 4 5 4 5 5 5 5 6 6 5 5 5 5 5 5 5 5 4 7 10 10 9 9 9 9 9 9 9
3 4 4 4 4 5 5 5 5 4 3 3 4 5 6 6 6 6 6 6 6 4 3 4 5 4 5 5 5 10 10 10 10 10 10 10 9 9
3 2 1 3 4 5 5 5 6 5 5 4 4 6 7 6 8 8 7 6 6 5 3 4 4 5 4 4 4 5 7 9 10 10 10 9 8 7
4 3 3 2 3 4 6 5 6 7 6 6 5 5 4 4 4 5 5 6 6 6 4 4 5 5 5 4 4 4 5 5 7 8 9 10 9 8
5 5 4 3 4 5 4 4 6 7 5 4 4 4 4 4 3 4 4 5 6 7 6 6 5 5 6 6 5 4 4 5 5 5 5 8 10 11
4 4 5 6 6 5 5 6 6 4 4 4 4 4 4 4 4 4 4 5 6 6 5 5 5 5 6 6 6 5 5 4 4 4 5 5 5 6
4 4 6 8 6 5 4 3 3 3 4 4 4 4 4 4 4 4 4 3 3 3 3 4 4 5 6 7 6 5 5 4 4 4 4 5 5 5
6 5 4 3 3 3 3 2 3 2 3 4 4 4 4 4 4 3 3 4 4 4 3 2 3 4 5 6 6 5 5 4 4 3 4 4 4 5
6 4 4 4 4 4 4 3 3 3 4 4 4 4 4 4 4 4 3 4 4 4 3 3 3 4 4 4 5 6 4 4 3 3 4 4 4 4
4 3 4 4 4 4 4 4 4 4 4 4 4 4 4 4 4 4 4 4 4 4 4 3 3 4 5 4 2 3 4 4 4 4 4 4 4 4
3 4 4 4 4 4 4 5 5 4 4 4 4 5 4 4 4 4 4 5 5 5 4 3 3 3 4 5 4 3 3 4 4 4 4 4 4 3
3 4 4 5 5 4 4 5 5 5 5 5 4 5 5 5 4 5 4 4 5 5 5 4 3 3 4 3 4 3 2 2 4 4 5 4 4 4
4 4 4 4 5 5 5 5 5 5 5 5 5 5 5 5 5 5 5 5 4 4 5 4 2 2 3 4 5 4 3 2 2 3 3 4 4 4
4 4 4 4 4 5 5 6 6 5 5 5 5 5 5 5 5 4 4 5 5 5 4 4 3 2 3 4 4 4 4 3 3 2 2 2 4 3
Wind_Direction
290 289 284 278 272 270 267 268 273 275 270 259 259 245 239 234 221 243 247 199 206 212 218 222 229 230 232 231 230 228 227 230 230 228 227 226 226 229
291 299 293 288 287 277 267 263 264 272 279 285 282 274 266 257 204 241 246 203 204 204 206 209 216 221 226 229 231 228 226 228 229 227 226 227 229 229
291 288 289 297 291 285 276 268 263 266 274 284 280 274 265 266 258 254 245 235 207 189 194 202 209 218 226 231 231 227 223 224 226 226 226 227 230 228
308 301 295 296 302 297 295 283 280 276 272 280 284 276 265 260 260 259 254 245 241 184 185 195 205 212 219 226 229 231 229 227 229 232 232 231 228 227
317 311 300 294 292 295 295 293 289 280 274 274 276 281 275 275 274 264 260 260 254 202 189 195 206 212 217 219 221 226 229 228 230 234 235 236 236 233
317 312 308 301 295 292 287 288 288 290 279 269 269 267 269 269 264 269 262 245 248 241 230 216 202 207 216 219 218 221 224 228 231 234 234 234 235 233
315 310 313 320 325 311 308 308 300 292 289 279 274 275 273 280 272 270 266 261 249 250 249 239 220 225 221 218 215 218 221 223 224 228 231 230 230 230
314 314 312 298 299 272 274 287 293 291 295 292 285 286 288 288 288 280 278 274 272 254 252 256 247 244 240 236 204 200 212 219 223 225 226 226 225 226
317 317 315 328 314 307 287 258 264 262 265 278 288 291 293 294 288 278 278 283 285 281 271 265 255 253 251 238 185 189 204 215 222 225 225 223 223 223
312 309 310 318 330 321 312 308 300 289 276 265 281 288 293 296 285 276 278 271 263 256 251 265 264 259 259 248 183 190 203 213 219 222 221 221 222 224
312 319 319 313 341 320 301 303 301 292 257 255 265 270 283 280 278 275 267 261 264 262 241 260 269 263 253 248 208 195 203 210 217 222 221 221 223 224
312 301 342 317 336 325 305 305 302 305 305 286 264 252 254 249 235 252 270 272 275 277 261 252 265 269 256 239 234 212 209 208 213 216 216 218 219 228
327 328 10 22 306 296 291 299 301 299 293 289 283 280 273 270 259 252 263 274 278 278 281 272 274 269 266 265 260 245 232 222 212 210 209 207 204 217
326 336 1 333 297 285 284 295 288 284 284 291 291 295 295 290 286 279 268 265 273 279 285 282 278 278 275 272 269 259 245 239 234 228 217 195 203 210
318 321 305 290 282 266 257 264 269 279 294 297 297 300 301 305 297 279 260 248 251 256 263 268 267 272 272 270 271 267 263 249 240 240 234 220 211 208
296 280 248 248 258 276 279 265 275 299 301 300 300 302 303 296 287 287 283 273 266 262 249 249 253 264 271 274 269 266 265 259 243 243 242 234 225 219
320 307 316 323 318 316 308 307 303 302 298 302 300 298 296 292 292 293 291 290 283 280 273 256 247 250 260 271 270 267 265 259 252 244 239 238 229 224
300 309 323 320 313 314 316 315 313 317 315 312 307 303 299 297 300 301 297 292 291 289 287 283 272 265 259 249 262 268 268 273 267 250 253 247 242 233
285 318 324 322 317 317 317 317 320 327 320 311 306 304 303 302 303 302 303 296 291 287 286 287 283 278 279 280 264 263 276 278 271 261 258 260 256 247
305 315 322 323 319 321 325 325 323 320 315 310 309 307 303 299 296 295 297 300 297 293 289 287 285 285 290 300 302 289 255 266 270 271 272 264 256 230
319 320 326 328 326 324 320 318 317 315 318 314 310 305 301 296 292 291 295 298 293 293 294 297 307 282 273 279 278 276 273 240 264 270 275 269 261 247
320 323 329 328 324 321 318 321 323 322 321 316 313 307 302 296 295 298 302 300 292 292 294 302 307 284 277 276 280 278 279 268 222 217 267 281 273 265
325 325 324 321 321 321 322 324 325 324 324 320 314 313 311 307 303 299 296 298 300 304 304 301 299 289 287 280 279 281 275 265 254 236 219 196 200 222